Regional Weather Roundup
Issued by NWS Charleston, SC

Current Version | Previous Version | Graphics & Text | Print | Product List | Glossary On
Versions: 1 2 3 4 5 6 7 8 9 10 11 12 13 14 15 16 17 18 19 20 21 22 23 24 25 26 27 28 29 30 31 32 33 34 35 36 37 38 39 40 41 42 43 44 45 46 47 48 49 50
000
ASUS42 KCHS 301813
RWRCHS

REGIONAL WEATHER ROUNDUP
NATIONAL WEATHER SERVICE CHARLESTON SC
200 PM EDT SAT JUL 30 2016

NOTE: "FAIR" INDICATES FEW OR NO CLOUDS BELOW 12,000 FEET WITH NO
SIGNIFICANT WEATHER AND/OR OBSTRUCTIONS TO VISIBILITY.

NOT ALL STATIONS ARE QUALITY CONTROLLED. USE DATA WITH CAUTION...
ESPECIALLY DEWPOINT OBSERVATIONS.

SCZ027-030-031-034>040-042>050-301900-
...SOUTHEAST SOUTH CAROLINA...

CITY           SKY/WX    TMP DP  RH WIND       PRES   REMARKS
N CHARLESTON   MOSUNNY   97  69  40 MISG      29.99F HX 103
6HR MIN TEMP:  83; 6HR MAX TEMP:  98;

WATERFRONT PRK   N/A     94  73  50 VRB3      29.99F HX 103
MOUNT PLEASANT FAIR      93  75  55 S6        29.99F HX 104
JOHNS ISLAND   FAIR      97  75  49 S10G16    30.00F HX 109
PINOPOLIS        N/A     91  73  55 CALM      29.91F HX 100
MONCKS CORNER  FAIR      91  66  43 SW7       29.99F HX  94
SUMMERVILLE    FAIR      99  70  39 SW6       30.00F HX 105
BEAUFORT MCAS  MOSUNNY  100  68  35 W12       30.00F HX 105
6HR MIN TEMP:  83; 6HR MAX TEMP: 100;

BEAUFORT ARPT  FAIR      95  72  46 S8        30.00F HX 103
HILTON HEAD IS NOT AVBL
WALTERBORO     PTCLDY    97  66  36 S7        30.00F HX 100
ALLENDALE      FAIR      95  70  43 VRB7G13   29.99F HX 101

...SOUTHERN MIDLANDS AND PEE DEE...

CITY           SKY/WX    TMP DP  RH WIND       PRES   REMARKS
GEORGETOWN     FAIR      93  72  49 SW9       30.00F HX 100
KINGSTREE      FAIR      95  68  41 CALM      29.98F HX  99
ORANGEBURG     MOSUNNY   97  70  41 S12G20    29.99F HX 103
6HR MIN TEMP:  79; 6HR MAX TEMP:  97;

BARNWELL       NOT AVBL
AIKEN          MOCLDY    90  68  48 SW12G18   30.03F HX  93
MANNING        FAIR      95  70  43 S9G16     29.98F HX 101
COLUMBIA       PTSUNNY   98  66  34 SW15      29.96F HX 101
6HR MIN TEMP:  80; 6HR MAX TEMP:  99;

SUMTER         MOSUNNY   95  71  46 SW10      29.96F HAZE    HX 102
6HR MIN TEMP:  81; 6HR MAX TEMP:  95;

FLORENCE       SUNNY     96  72  45 W14       29.98F HX 104
6HR MIN TEMP:  78; 6HR MAX TEMP:  96;

MYRTLE BEACH   PTSUNNY   97  72  44 S9        30.00F HX 105
N MYRTLE BEACH MOSUNNY   93  77  59 S12       29.98F HX 107
6HR MIN TEMP:  84; 6HR MAX TEMP:  97;


$$

GAZ063-065-086>088-099>101-113>116-118-119-134>141-150-301900-
...SOUTHEAST GEORGIA...

CITY           SKY/WX    TMP DP  RH WIND       PRES   REMARKS
SAVANNAH ARPT  MOSUNNY   96  68  39 VRB5      30.01F HX 101
6HR MIN TEMP:  80; 6HR MAX TEMP:  98;

HUNTER AAF     MOSUNNY   97  74  47 SW7       29.99F HX 109
6HR MIN TEMP:  81; 6HR MAX TEMP:  98;

FORT STEWART   MOSUNNY   96  70  42 CALM      29.98F HX 103
6HR MIN TEMP:  80; 6HR MAX TEMP:  97;

STATESBORO     SUNNY     96  73  47 SW7       30.01F HX 104
SYLVANIA       NOT AVBL
CLAXTON        MOCLDY    94  72  47 SW3       30.01F HX 102

...CSRA...CENTRAL AND FAR SOUTHEAST GEORGIA...

CITY           SKY/WX    TMP DP  RH WIND       PRES   REMARKS
THOMSON        NOT AVBL
AUGUSTA-BUSH   PTSUNNY   86  71  60 SW9       30.00F HX  91
6HR MIN TEMP:  78; 6HR MAX TEMP:  97; 6HR PCP:  0.02;

AUGUSTA-DANIEL MOSUNNY   85  72  65 CALM      30.02F HX  91
SWAINSBORO     FAIR      95  68  41 W3        30.01F HX  99
VIDALIA        MOSUNNY   97  66  36 W6        30.01F HX 100
EASTMAN        FAIR      96  51  21 W7        30.05F HX  93
HAZLEHURST     FAIR      97  70  41 CALM      30.01F HX 103
ALMA           MOSUNNY   93  68  43 VRB3      30.02F HX  97
6HR MIN TEMP:  78; 6HR MAX TEMP:  96;

WAYCROSS       MOSUNNY   97  73  46 W3        30.02F HX 106
JESUP          FAIR      97  75  49 W6        30.02F HX 109
BAXLEY         FAIR      97  73  46 W7        30.02F HX 107
BRUNSWICK      MOSUNNY   97  73  46 W7        30.03F HX 107
SAINT SIMONS   SUNNY     94  73  50 S10       30.03F HX 103
6HR MIN TEMP:  81; 6HR MAX TEMP:  95;


$$

SCZ027-028-034-036>038-045-046-048>050-GAZ119-141-301900-
...LAKE AND SUPPLEMENTAL COASTAL OBSERVATIONS...

STATION/POSITION TIME  TEMP    WIND        PRES    WAVE   SWELL
                       AIR SEA DIR/SP/G            HT/PER HT/PER/DIR
                 (UTC) (F)     (DEG/KT/KT) (MB)    (FT/S) (FT/S/D)
WINYAH BAY       NOT AVBL
LAKE MURRAY      1700   92     180/  4/  7 1015.2F
ACE BASIN NERRS  NOT AVBL
FORT PULASKI     1700   94 88  250/  6/  9 1017.2F
SAPELO ISLAND    1700   96     180/  3     1017.0F

$$

ANZ835-935-AMZ111-154-330-350-352-354-370-450-454-472-301900-
...C-MAN AND BUOY OBSERVATIONS...

STATION/POSITION TIME  TEMP    WIND        PRES    WAVE   SWELL
                       AIR SEA DIR/SP/G            HT/PER HT/PER/DIR
                 (UTC) (F)     (DEG/KT/KT) (MB)    (FT/S) (FT/S/D)
BUOY 41004       1750   85 86  230/ 10/ 10 1016.1F   3/ 6   3/210/ 6
BUOY 41008       1750   85 88  170/ 10/ 12 1017.1F   1/ 8   2/100/ 8
FOLLY BEACH CMAN 1800   90     190/ 11/ 12 1016.2F
CAPERS NEARSHORE 1708   87 87  210/ 10/ 12 1016.4F
FRIPP NEARSHORE  1708   87 88  190/ 10/ 14 1016.6F


STATION/POSITION TIME  TEMP    WIND        PRES    WAVE   SWELL
                       AIR SEA DIR/SP/G            HT/PER HT/PER/DIR
                 (UTC) (F)     (DEG/KT/KT) (MB)    (FT/S) (FT/S/D)
5E ST. MARYS GA  1801      88                N/A     1/ 8
FRYING PAN BUOY  1700   85 85  220/ 10/ 12 1016.0F
BUOY 41025       1750   83 85  170/ 14/ 16 1016.1R   3/ 6   2/210/ 6
CAPE LOOKOUT NC  1700   86     210/  8/ 12 1015.7R
BUOY 41002       1750   85 85  230/ 10/ 12 1018.5S   3/ 6   2/230/ 6
BUOY 41010       1720   86 88  270/  2/  4 1018.7F
ST AUGUSTINE FL  1800   84 87   80/  8/  9 1018.8F


$$




USA.gov is the U.S. government's official web portal to all federal, state and local government web resources and services.